Theta_e
311 316 317 316 315 314 314 313 313 313 313 313 313 314 314 313 312 312 313 312 311 313 315 315 314 313 313 313 312 312 312 312 310 311 311 311 312 312 313 313 314 315 316 317 316 316 316 315 315 314 314 314 313 314 313 313 313 312 312 312 311 311 310 310 309 308 308 307 307 307 307 307 306 305 304 304 303 303 303 303 302 302 301 300 300 300
311 315 316 315 314 313 313 313 312 313 313 313 313 314 313 313 313 312 313 313 311 312 314 314 314 313 312 313 312 312 312 312 311 311 311 312 312 312 313 313 314 315 316 317 317 316 315 315 315 314 313 313 314 313 314 313 313 312 312 312 311 311 311 310 310 309 309 309 309 308 308 308 307 306 306 305 305 303 303 303 302 302 301 300 299 299
314 314 314 313 312 312 313 313 313 312 313 313 313 314 313 313 313 312 313 314 312 312 316 316 314 312 312 313 311 311 312 312 312 312 312 312 312 312 313 313 314 315 315 316 317 316 316 315 314 314 313 313 314 313 313 313 313 312 312 311 311 311 310 310 310 310 309 309 308 308 308 308 307 307 306 306 305 304 303 302 302 302 301 300 299 299
316 315 313 311 311 312 314 313 313 313 312 314 314 313 314 313 313 314 315 317 313 312 316 316 313 311 312 312 311 310 310 311 312 312 312 312 312 313 313 314 314 314 315 315 316 317 316 315 314 314 314 313 313 313 313 313 312 312 312 311 311 311 310 310 310 310 309 308 307 307 306 306 306 306 305 304 304 303 302 302 302 302 301 300 299 299
315 314 311 311 313 313 314 313 314 314 313 314 315 314 314 313 314 313 314 316 314 313 315 314 312 312 313 312 312 311 310 311 311 311 312 311 312 313 313 314 314 315 315 316 316 317 316 315 315 314 314 313 314 314 313 313 313 312 312 311 311 311 310 310 310 309 309 308 307 306 305 304 304 304 303 303 304 303 303 302 302 302 301 300 298 298
312 311 311 315 317 315 314 314 315 317 314 314 316 315 313 314 314 314 315 314 314 317 316 314 315 316 317 316 313 312 313 312 312 311 311 311 312 313 313 315 316 316 316 316 316 316 316 316 315 314 314 314 313 314 314 313 313 313 312 311 311 310 310 310 309 309 308 308 307 306 306 305 305 304 304 305 305 305 304 304 303 302 301 300 299 298
313 312 312 316 319 318 316 315 316 316 314 315 319 319 315 314 314 315 316 315 318 321 316 314 317 317 317 318 315 315 315 314 314 313 311 310 311 312 313 316 317 316 316 316 316 316 316 316 316 315 314 314 314 314 314 313 313 312 312 311 311 310 310 309 309 308 308 308 307 307 307 307 307 306 307 307 306 305 304 304 303 302 301 300 299 298
314 312 313 315 316 319 318 316 316 315 315 316 320 324 321 317 317 317 317 317 319 319 315 315 318 317 316 316 317 317 317 316 316 316 314 311 311 312 313 315 316 317 317 317 316 316 316 316 316 316 315 314 314 314 314 313 313 312 311 311 310 310 309 309 309 308 308 308 308 308 307 306 306 306 307 306 305 305 304 303 302 301 301 300 299 298
315 315 316 315 315 317 316 315 316 315 316 317 318 320 321 320 320 319 318 320 319 316 315 316 317 317 316 316 318 316 315 317 315 315 316 313 312 312 313 315 316 317 317 317 317 317 317 316 316 315 315 314 314 314 314 313 313 312 311 310 310 309 309 309 308 308 308 308 308 307 307 306 306 305 305 304 304 304 303 303 302 301 301 300 299 298
314 315 313 315 316 315 314 317 319 318 317 316 316 318 321 323 323 320 317 318 319 318 317 317 317 317 317 318 318 314 314 316 314 315 315 313 313 313 313 316 316 317 317 317 317 317 317 316 315 315 314 314 314 314 314 313 313 312 311 310 309 309 309 308 308 308 308 307 307 307 307 307 306 305 304 303 303 303 302 302 302 301 300 300 299 298
311 310 310 313 314 312 316 316 312 314 314 312 316 320 323 324 324 324 323 320 318 318 319 320 318 317 318 318 316 315 317 317 314 314 314 312 312 312 314 316 316 317 317 317 317 317 316 316 315 314 313 314 314 313 314 313 312 311 310 310 309 309 308 308 308 307 307 307 307 307 307 307 306 305 305 304 303 303 302 302 301 301 300 300 299 298
310 310 312 314 311 310 316 313 308 310 310 312 320 322 321 323 323 324 323 320 318 319 320 320 317 315 317 317 315 316 317 317 315 314 318 318 314 313 315 317 317 318 317 317 317 316 316 315 314 314 313 314 314 313 313 313 312 311 310 310 309 309 309 309 308 308 308 307 307 307 307 307 306 305 305 305 305 304 303 303 302 301 300 299 299 298
315 313 313 313 311 311 316 317 315 313 312 315 321 319 318 321 320 320 322 319 318 320 317 316 315 314 315 316 316 316 316 318 316 312 315 317 314 314 316 317 317 317 317 316 317 316 316 315 315 314 314 314 314 314 313 313 312 311 310 310 309 310 310 309 309 309 308 308 308 308 307 306 305 305 305 305 305 305 304 303 302 301 301 300 299 298
320 316 312 312 312 312 315 316 316 316 315 315 317 318 318 319 318 320 324 321 318 319 316 312 314 315 316 318 318 315 314 314 313 310 312 313 312 314 316 317 316 316 316 316 316 316 315 315 315 315 314 314 314 314 313 313 312 311 310 310 310 311 310 310 310 310 309 309 309 309 307 306 305 305 305 305 306 306 305 303 303 302 301 301 300 300
320 318 315 315 316 314 313 314 316 319 316 313 316 319 317 320 324 323 325 322 319 322 319 313 315 318 317 317 319 317 313 311 310 311 312 311 311 313 314 315 316 316 316 316 314 314 315 315 315 315 314 314 314 314 313 313 312 311 311 311 312 311 311 311 311 310 310 310 309 309 307 306 306 305 305 305 305 306 306 304 303 302 301 301 300 300
317 318 318 314 313 313 313 313 316 320 317 313 318 319 315 319 324 321 321 321 317 320 320 314 317 321 316 314 316 317 315 312 310 310 310 310 312 313 313 315 316 316 316 315 313 313 314 314 315 315 315 314 314 313 313 313 312 312 313 313 313 312 312 311 311 311 311 310 309 308 307 307 306 306 306 305 305 305 306 306 304 303 302 301 300 299
315 319 319 311 310 312 312 312 314 316 316 314 315 317 315 316 318 317 320 321 315 316 318 316 318 319 316 316 316 315 315 314 315 314 312 311 311 312 311 312 314 315 315 314 313 313 314 314 315 315 315 314 314 313 313 312 312 313 313 314 313 313 312 311 311 311 311 310 309 309 308 307 307 307 307 307 306 305 305 305 305 304 302 301 300 299
317 318 319 315 315 312 305 306 311 311 311 315 317 315 314 315 317 317 320 321 317 316 317 316 317 316 317 319 316 316 317 316 319 319 314 310 309 308 310 312 314 315 315 314 313 313 314 314 315 315 315 315 314 313 313 312 313 313 313 313 314 313 313 312 312 311 311 310 309 309 308 308 308 307 307 306 305 304 303 304 305 305 304 303 301 299
318 317 318 317 317 312 306 308 314 310 307 312 315 314 314 317 318 318 318 318 317 317 318 318 318 316 316 317 315 317 318 316 318 318 315 315 311 307 310 312 314 315 314 315 313 313 314 314 315 315 315 315 314 313 313 312 312 312 313 313 313 313 313 313 312 311 311 310 309 309 309 309 308 308 307 306 304 303 303 303 304 305 306 305 303 301
316 317 318 317 314 312 309 311 316 315 310 309 310 312 314 315 317 318 318 318 317 318 319 319 319 317 318 319 317 317 318 317 318 316 317 317 310 307 311 312 313 314 314 314 314 313 313 314 315 315 314 314 313 313 312 312 312 312 312 313 312 313 312 312 312 311 311 311 310 310 309 309 308 308 307 306 304 304 304 304 303 303 304 305 304 303
316 318 317 315 313 312 313 314 316 317 315 312 312 313 313 313 316 317 316 317 317 316 317 319 319 318 319 319 318 317 317 317 316 314 316 315 309 310 313 312 313 314 313 314 314 314 313 313 315 315 314 314 313 313 312 312 312 312 312 312 312 312 312 312 312 312 311 311 311 310 310 309 309 308 307 306 305 304 304 304 302 301 301 302 303 303
316 318 317 315 314 314 316 317 316 315 315 314 313 313 313 313 315 316 315 316 316 315 316 317 317 319 319 317 315 315 316 315 314 313 313 312 310 312 313 313 314 314 314 314 314 315 314 312 313 315 313 313 313 312 312 312 312 312 312 312 312 312 312 311 312 312 311 311 311 310 310 309 309 308 307 306 305 305 304 304 303 301 300 300 301 301
314 315 315 316 317 316 316 316 316 314 313 312 313 314 315 313 312 315 316 316 316 315 315 315 315 318 319 317 314 314 314 313 312 312 312 311 310 312 312 312 313 313 313 314 313 315 314 311 313 314 312 312 312 312 312 312 312 312 311 311 311 311 311 311 311 312 312 311 311 311 310 309 309 308 307 306 306 305 305 304 303 301 300 299 300 299
314 314 315 316 317 317 316 316 315 312 310 311 313 314 314 312 312 314 314 315 316 315 315 316 316 317 319 319 316 314 313 312 310 309 309 309 310 311 311 311 312 312 313 313 314 314 313 311 312 313 312 312 312 312 312 312 311 311 311 311 311 311 312 311 311 310 311 311 310 310 310 309 309 308 307 307 306 306 305 304 302 301 300 298 298 298
316 317 317 317 317 317 318 318 316 312 310 312 314 313 313 313 313 313 313 314 315 314 315 316 315 316 318 318 315 313 313 313 311 310 308 307 308 310 310 311 312 312 312 313 314 313 311 310 310 311 311 311 311 311 311 311 311 312 311 312 312 312 312 312 311 310 310 310 310 309 309 309 309 308 308 308 307 306 306 304 303 302 300 298 297 297
317 319 319 317 317 318 317 318 319 317 314 313 314 314 313 313 314 313 313 314 314 314 315 316 315 315 315 315 314 313 313 312 312 312 310 309 309 310 310 311 311 312 312 313 313 311 309 309 309 310 311 311 311 311 311 311 312 312 311 311 311 312 312 312 311 309 309 309 309 309 309 308 308 308 308 308 307 307 306 304 303 302 301 300 297 296
315 317 317 317 317 318 317 316 318 319 316 314 314 314 314 314 314 313 314 314 315 315 315 315 315 315 315 315 314 313 313 313 313 313 312 312 312 311 311 312 312 312 312 312 311 310 309 309 310 310 311 311 311 311 311 311 312 312 312 311 311 311 312 311 310 309 309 309 309 308 308 308 308 308 308 308 307 306 305 304 303 302 301 300 298 296
313 314 316 316 315 316 317 316 316 316 315 315 315 315 314 314 314 314 314 314 314 315 315 315 315 315 316 316 315 314 313 313 313 313 313 313 312 312 312 311 311 311 311 310 310 310 310 311 311 311 311 311 310 310 311 311 312 312 312 311 311 311 311 311 310 310 309 309 308 308 308 308 308 308 307 306 306 305 304 303 303 302 301 300 299 297
313 313 314 315 315 315 315 315 315 315 315 315 315 315 315 315 315 314 314 313 313 314 314 314 315 315 315 315 314 314 313 313 313 313 313 313 312 312 311 311 310 309 309 309 309 311 311 312 312 312 312 312 311 312 312 312 312 311 311 312 312 311 311 311 311 310 309 309 308 309 308 308 307 306 305 305 304 303 303 302 301 301 300 299 299 298
312 313 314 314 314 314 315 315 314 315 315 315 315 315 315 315 315 315 314 314 314 314 313 313 314 314 314 313 313 313 313 313 313 312 312 311 311 311 311 310 310 309 308 309 309 310 310 310 311 311 311 311 311 311 311 311 310 310 311 312 312 311 311 310 310 310 309 309 308 308 308 307 306 305 304 304 304 303 302 301 300 300 299 299 298 297
310 313 314 314 314 314 314 314 314 314 314 314 314 314 314 315 315 315 314 314 314 314 314 314 314 313 313 312 312 312 312 312 311 311 311 311 311 310 309 308 307 306 306 306 306 306 306 306 306 307 308 308 308 309 309 309 310 310 310 311 311 311 311 310 309 309 310 310 309 308 307 306 305 305 304 303 303 302 302 301 299 299 298 298 297 297
309 311 312 313 314 315 314 314 313 313 314 314 314 314 314 314 314 314 314 314 314 314 314 314 315 314 313 312 312 311 311 311 311 311 310 310 308 306 304 304 303 303 302 302 302 302 302 301 302 303 304 305 306 307 307 308 309 309 310 311 311 310 310 310 309 308 308 309 308 306 305 305 304 304 304 303 302 301 301 300 299 298 298 297 297 296
308 309 310 311 312 313 314 314 313 313 314 314 314 313 313 313 314 313 313 313 313 314 314 315 314 311 309 308 308 308 308 309 310 309 306 304 302 301 301 301 301 301 301 300 299 299 299 299 299 299 300 302 303 304 305 306 307 307 308 309 309 309 309 308 308 308 308 308 307 305 304 303 303 303 303 302 302 301 300 299 298 297 297 297 296 296
307 307 307 309 310 310 312 312 311 312 313 314 316 315 313 313 313 313 313 314 313 311 310 310 308 303 302 301 301 301 301 301 303 303 299 297 297 298 298 297 298 298 298 298 297 296 297 298 297 296 297 298 299 300 302 304 305 306 307 307 307 307 307 307 307 307 307 306 305 304 303 302 302 302 302 301 300 300 299 298 298 297 297 296 296 295
305 306 306 307 308 308 309 309 310 311 310 312 317 315 311 311 311 311 313 311 304 300 300 303 302 297 297 298 298 297 297 297 298 299 296 295 295 295 295 295 295 296 296 296 296 295 295 296 295 296 296 296 297 298 299 301 303 305 305 306 306 306 306 306 307 306 306 305 303 303 302 302 302 301 301 300 299 298 298 297 297 296 296 296 295 295
304 304 305 305 306 307 308 308 309 310 309 312 314 309 304 305 304 307 310 303 294 293 296 299 299 295 294 296 296 296 295 296 299 299 296 294 294 293 294 294 294 295 295 295 295 295 295 295 295 296 296 296 297 298 298 299 301 303 305 305 305 306 306 306 305 305 305 304 303 303 302 302 301 301 300 299 298 298 297 297 296 296 296 295 294 294
304 305 305 306 307 307 308 308 308 309 309 310 308 302 299 300 299 301 305 300 292 292 296 296 296 295 293 294 295 295 294 295 298 299 295 293 293 293 293 294 294 294 294 294 295 295 295 296 296 297 298 297 297 298 298 299 300 302 304 305 304 304 305 305 305 305 304 303 303 303 302 301 301 300 299 299 298 298 297 297 296 295 295 294 294 293
304 305 305 306 307 307 308 308 308 310 309 304 298 296 297 298 296 298 302 300 293 292 295 295 294 294 293 293 294 294 294 294 295 295 293 293 293 293 293 294 294 294 294 295 295 295 296 297 297 297 298 298 298 298 298 299 300 302 303 304 304 303 303 304 304 304 303 303 302 301 301 300 300 299 299 299 299 298 297 296 296 295 295 294 294 293
302 305 305 306 306 306 305 304 303 306 305 298 294 295 297 296 295 298 304 302 294 292 295 295 293 293 293 293 293 294 293 293 293 293 293 293 293 293 293 294 294 294 294 295 295 294 295 296 296 297 297 298 298 298 298 299 300 301 302 303 303 303 303 304 303 303 302 301 300 299 299 298 298 298 298 298 298 297 296 296 295 295 294 294 293 293
301 303 304 303 303 304 303 302 301 302 300 295 295 296 295 294 297 303 307 302 293 292 295 294 293 293 293 292 293 293 293 293 293 292 293 293 293 293 293 293 293 293 293 293 293 293 293 294 294 295 295 296 297 298 299 299 300 302 302 301 301 302 303 303 303 303 302 301 300 299 298 297 297 296 296 296 295 295 294 294 294 294 294 293 292 292
298 299 300 299 299 301 301 301 301 302 298 294 295 295 294 294 297 300 300 297 293 293 295 294 292 293 292 292 293 293 293 293 293 292 293 293 293 293 293 292 292 292 292 292 292 292 292 292 292 293 294 295 295 296 297 298 299 301 302 301 300 301 301 301 302 302 302 302 301 300 298 297 296 295 295 295 294 294 294 294 293 293 293 293 292 291
296 296 297 298 298 298 298 297 297 300 298 294 293 294 293 293 293 293 293 293 293 294 294 293 292 292 292 292 292 292 293 293 292 293 292 292 292 292 291 291 291 291 291 290 290 290 291 291 291 291 292 293 293 294 295 295 296 297 298 299 300 300 299 299 300 300 300 301 301 301 300 298 296 295 294 294 294 294 293 293 292 292 292 291 291 290
294 294 294 295 295 295 295 295 296 298 297 294 292 293 293 292 291 291 292 293 294 294 293 292 292 292 292 292 292 292 293 292 292 292 291 290 290 290 289 290 289 289 289 289 289 289 289 290 290 290 290 291 291 292 293 294 295 295 295 296 298 299 299 299 299 299 300 300 300 301 300 299 298 296 295 294 294 293 292 292 291 291 290 290 290 289
293 293 292 294 295 294 293 295 296 295 294 293 293 293 292 291 290 291 292 294 294 293 292 292 292 292 292 291 291 292 291 291 290 289 289 288 288 288 288 288 288 288 288 288 288 288 288 288 289 289 290 290 290 290 290 291 293 294 294 294 295 297 298 299 299 298 298 299 299 300 300 300 299 298 296 294 293 292 291 291 291 290 290 289 289 288
293 293 293 293 294 293 292 293 293 293 292 292 292 292 291 290 290 290 292 293 293 292 291 291 291 290 290 290 290 290 289 289 288 287 287 287 287 287 287 287 287 287 287 287 287 287 287 287 288 288 288 289 289 289 289 290 290 291 292 292 293 293 295 297 298 298 298 298 298 299 300 300 300 300 297 293 292 292 292 292 291 290 290 289 289 288
292 292 292 291 292 291 291 291 291 292 292 291 291 290 290 290 290 290 291 292 292 291 291 291 290 289 289 288 288 287 287 287 286 286 286 286 286 286 286 286 286 286 286 286 286 286 286 286 287 287 287 287 288 288 288 289 289 289 290 291 291 292 292 294 296 298 299 299 299 299 299 300 300 300 297 294 292 291 292 292 292 292 291 290 289 288
291 290 290 291 291 290 290 291 290 290 290 290 290 290 290 289 290 290 290 291 290 290 290 289 288 288 288 287 286 286 286 286 285 285 285 285 285 285 285 285 285 285 285 285 285 285 285 285 285 285 285 286 286 287 287 287 288 289 289 290 290 291 292 292 293 295 297 299 299 299 300 300 299 298 297 295 293 291 291 291 292 292 292 291 290 288
291 291 291 291 290 290 290 290 290 290 290 289 290 289 289 289 289 289 289 289 289 289 289 288 288 287 287 286 286 285 285 285 285 285 284 284 284 284 284 284 284 284 284 285 285 285 284 284 284 284 284 284 285 285 285 286 287 288 288 289 289 290 291 292 292 293 295 297 298 298 299 299 299 297 296 295 293 292 291 290 290 290 291 293 292 291
290 291 291 291 290 290 290 290 289 289 289 289 289 289 289 289 289 289 289 288 288 287 286 286 286 286 285 285 285 284 284 284 284 284 283 283 283 284 284 284 283 283 284 284 284 284 284 283 283 282 282 283 284 284 284 285 286 286 287 288 288 289 290 291 292 293 294 295 296 297 297 298 297 297 295 294 293 292 291 290 289 289 289 289 290 291
290 290 290 290 290 289 289 290 290 289 289 289 289 289 289 289 289 288 288 287 286 285 284 284 284 284 284 283 283 282 282 282 283 282 281 281 282 282 282 282 282 282 283 283 283 283 283 283 282 281 282 283 284 284 284 284 285 286 286 286 287 288 289 290 291 292 293 294 294 295 296 296 296 296 294 293 292 291 290 289 289 288 287 287 287 287
290 290 290 290 289 290 289 289 289 289 288 289 289 289 289 288 288 287 286 285 284 283 282 282 282 282 282 283 282 281 280 281 281 281 280 280 281 281 280 280 280 280 281 281 281 281 282 281 281 282 283 284 284 284 284 283 284 285 286 286 286 286 287 288 289 290 291 292 293 294 294 295 295 295 294 293 291 290 289 288 288 288 287 286 286 285
Wind_Speed
11 6 3 8 12 13 11 13 17 15 9 6 5 6 8 8 8 10 14 11 6 6 8 12 16 16 17 17 17 27 29 25 26 27 28 32 34 38 40 41 44 47 51 53 52 50 48 47 44 41 37 35 35 36 39 41 42 42 42 42 42 42 43 43 43 41 40 39 39 39 40 42 43 44 44 43 42 41 39 37 36 35 35 34 33 31
8 6 8 16 17 13 9 11 14 10 7 7 6 8 8 7 12 12 13 14 6 5 8 11 15 17 16 15 15 20 19 18 23 24 29 32 31 36 39 42 46 48 51 52 52 52 49 46 44 40 37 34 34 36 38 41 42 43 43 43 42 42 43 43 43 42 41 40 39 39 39 40 42 43 44 43 43 42 40 39 38 37 36 35 34 33
4 6 15 21 13 6 3 5 7 8 8 7 5 6 7 6 11 11 10 14 5 4 8 10 13 15 14 14 14 16 17 24 32 31 34 34 29 33 38 41 46 46 49 51 51 51 48 46 43 39 38 35 34 35 37 40 41 43 43 43 43 42 43 42 42 42 41 40 39 39 38 38 39 41 42 42 42 42 42 41 40 39 37 37 36 35
5 8 18 18 6 3 7 5 5 6 5 6 6 5 7 7 8 8 6 8 4 3 7 8 12 12 11 12 11 19 28 30 35 38 40 39 33 37 42 43 46 46 48 50 50 49 47 45 41 39 38 35 34 35 38 40 42 43 43 43 43 42 42 41 41 41 41 40 40 39 38 37 37 38 40 41 42 43 43 43 42 41 39 39 38 36
10 8 11 9 6 8 10 8 5 6 6 7 8 8 11 11 11 11 6 6 5 4 5 6 12 11 9 13 11 17 26 25 30 34 35 39 40 42 45 45 47 49 50 51 50 48 46 44 41 38 36 34 33 34 36 38 40 42 42 42 42 41 41 40 40 41 42 42 42 41 40 40 40 40 41 43 45 46 46 45 44 43 41 40 39 38
11 10 6 6 7 10 9 8 7 8 9 7 8 13 17 14 12 13 9 7 5 5 4 2 9 9 7 12 12 10 12 13 18 21 25 36 40 38 43 46 48 49 50 50 49 47 45 43 41 39 36 35 34 33 34 35 38 39 40 40 40 40 40 40 41 42 43 43 43 42 42 43 44 44 46 46 47 47 46 46 45 44 42 41 40 39
6 10 10 9 9 9 7 7 8 10 9 7 7 13 15 12 9 10 8 4 2 5 3 3 2 10 6 8 10 9 9 11 13 12 18 30 34 33 39 44 45 45 46 46 44 43 41 39 38 37 36 35 34 32 32 34 37 38 39 39 39 39 39 40 41 42 43 43 43 43 43 43 44 45 45 45 45 45 44 45 45 44 42 41 40 39
5 8 9 9 8 7 6 9 9 10 7 7 4 8 10 9 8 7 5 5 4 3 3 3 5 8 13 7 10 12 11 11 13 13 16 23 29 32 36 42 43 43 44 43 42 40 37 35 33 33 32 31 31 30 32 34 36 37 38 38 38 38 38 39 40 41 42 42 43 43 44 44 45 44 43 42 42 43 43 44 43 43 42 41 41 40
5 6 9 10 7 5 8 11 8 11 7 7 3 6 6 6 6 5 5 4 2 4 4 4 6 4 14 6 8 10 10 10 13 17 17 18 26 32 37 42 43 42 42 41 41 40 38 35 31 29 28 26 27 28 30 32 34 35 36 37 37 38 38 39 39 40 40 41 42 43 44 44 44 44 43 43 42 42 43 43 43 43 43 42 41 41
1 3 6 9 7 8 10 7 6 12 8 5 5 5 4 3 3 4 2 2 3 5 6 7 7 3 12 4 5 4 6 9 12 14 15 16 23 31 35 38 38 38 39 39 39 39 39 36 31 28 25 23 25 26 28 31 33 35 35 36 37 37 38 38 39 40 40 41 43 43 44 44 44 44 44 44 44 44 44 44 44 44 43 43 42 42
4 2 3 6 7 6 5 2 2 7 6 4 7 4 6 5 4 4 2 4 2 8 7 10 12 7 8 4 5 5 5 8 9 8 10 13 20 30 33 32 30 32 35 35 35 37 37 35 30 27 23 22 24 26 29 32 33 34 35 36 36 36 37 38 39 40 40 42 43 43 43 43 43 43 44 44 45 45 45 45 45 45 44 44 43 42
5 2 1 5 7 5 6 3 2 2 3 5 4 3 3 4 4 5 4 4 1 9 6 10 13 10 9 7 3 5 5 5 7 8 10 11 16 27 30 26 25 28 32 32 31 31 33 31 28 26 24 22 25 28 30 32 33 34 35 35 36 36 37 37 38 39 40 42 43 43 44 43 43 43 43 42 43 44 44 45 46 46 45 44 43 43
4 7 6 2 6 8 6 3 3 6 3 4 4 4 1 4 3 3 4 1 4 9 4 6 7 6 11 8 4 9 10 7 8 10 13 12 16 23 25 24 27 30 31 30 29 28 28 27 25 25 24 23 25 28 30 31 32 33 34 36 36 36 37 37 38 39 41 42 42 43 43 43 44 44 43 41 40 41 42 43 44 45 46 46 45 44
4 6 5 3 3 9 10 5 3 2 3 6 5 6 5 3 2 3 4 2 5 7 3 3 5 5 8 5 8 14 13 11 9 14 20 21 22 25 24 26 30 30 29 31 30 27 25 24 23 23 23 23 25 26 28 31 32 33 34 36 37 37 38 38 39 40 41 41 41 42 43 43 43 43 43 41 39 39 40 42 43 44 44 44 44 43
4 9 5 7 4 9 13 12 9 4 5 7 5 5 5 5 5 4 5 6 7 5 4 1 4 5 4 3 7 10 9 11 9 15 20 22 25 28 28 31 32 30 31 32 28 24 23 22 22 22 22 23 24 24 27 29 31 33 35 36 38 39 39 40 40 41 41 41 42 42 42 42 42 42 42 42 40 39 38 40 41 42 42 43 42 41
5 10 6 4 2 11 13 11 8 7 2 4 4 4 4 5 6 4 6 6 3 2 4 3 4 5 4 6 8 7 9 11 11 13 15 18 26 30 32 35 36 35 34 31 25 21 21 22 21 22 22 23 23 24 26 28 30 32 34 37 39 40 41 42 42 42 42 41 42 43 42 42 42 42 42 42 42 40 37 37 39 40 40 40 40 40
5 7 3 1 0 7 8 5 7 6 4 2 3 4 4 4 6 5 6 2 1 4 6 5 7 6 4 9 8 3 7 8 9 11 11 17 25 25 27 33 37 38 36 33 28 22 22 24 22 23 24 24 23 22 23 25 26 28 31 35 39 41 43 43 43 43 42 42 43 43 42 43 43 42 41 40 41 41 39 37 37 38 39 39 39 39
6 7 5 5 5 5 1 2 1 2 3 5 4 6 3 3 2 3 2 2 2 8 7 7 15 10 4 8 5 5 4 7 8 8 7 12 16 17 23 31 36 37 36 36 33 27 23 25 25 24 25 26 23 21 21 21 24 27 29 33 39 42 44 43 44 44 44 44 44 44 43 43 43 43 42 41 42 44 43 40 37 36 37 37 39 39
5 7 7 3 3 2 4 2 3 3 1 4 3 3 3 1 3 3 3 3 6 9 6 7 15 12 7 9 6 5 8 9 8 7 5 8 10 13 21 28 31 34 36 38 37 33 27 27 27 25 25 26 24 21 21 21 23 26 28 32 38 43 45 45 45 46 46 46 45 44 44 44 44 44 44 44 44 45 45 43 40 37 34 35 37 39
1 5 6 1 1 2 3 0 4 3 2 2 3 3 1 2 4 4 3 3 5 10 8 8 11 9 8 7 6 8 9 7 7 6 6 6 8 14 20 25 28 31 34 36 39 40 34 30 29 26 25 26 24 21 21 21 21 23 27 33 39 43 46 48 48 48 47 47 46 46 46 45 46 46 46 46 47 46 45 44 45 43 39 36 36 38
2 4 6 1 2 2 1 3 5 5 4 1 2 4 3 2 1 1 2 1 3 8 8 8 9 8 6 4 6 8 7 7 7 5 6 7 13 22 27 30 33 35 36 36 38 44 44 35 31 28 24 25 24 23 22 21 20 24 29 34 37 43 47 49 50 50 49 48 48 48 48 48 47 48 49 48 49 48 46 46 47 47 46 43 40 39
1 3 4 2 3 4 4 5 6 7 6 5 5 6 6 6 4 4 7 5 4 6 7 8 9 7 4 4 6 7 6 7 7 5 7 12 22 31 35 38 38 35 36 36 37 46 49 39 31 28 24 22 23 23 21 20 23 27 30 32 35 41 46 49 50 51 51 50 51 51 50 50 50 50 51 51 51 50 48 48 49 49 50 48 45 43
3 1 3 5 6 6 8 7 5 6 5 4 4 4 5 5 5 7 9 6 3 4 5 7 9 5 2 7 12 10 9 12 12 10 11 18 29 33 34 36 34 30 34 37 40 49 51 40 32 29 22 18 20 21 21 23 26 28 30 31 34 39 43 46 49 51 53 54 54 53 53 54 54 53 54 54 53 51 50 50 50 51 52 50 48 46
5 2 2 5 4 5 8 8 6 4 3 3 4 4 5 5 6 8 7 2 2 5 5 8 10 5 1 5 13 16 19 20 18 16 16 20 28 30 29 31 32 34 39 40 44 51 50 40 33 27 19 17 20 23 25 26 26 27 29 31 34 39 43 46 48 51 55 57 56 55 56 57 56 56 57 56 55 53 53 53 53 53 53 52 51 48
5 2 2 2 4 5 5 5 4 3 3 4 4 5 6 7 7 7 3 1 4 8 9 11 11 7 3 7 12 16 22 24 22 24 22 20 25 29 30 34 38 41 43 44 47 47 38 29 25 22 20 20 21 22 23 24 25 29 31 32 36 42 46 48 49 50 53 57 58 58 58 58 58 59 59 58 57 56 55 56 55 54 53 53 53 51
6 4 5 5 8 9 9 7 5 4 3 3 4 7 9 11 12 10 6 6 8 10 13 13 11 10 10 13 16 20 24 25 25 30 28 22 24 30 32 36 39 41 42 44 45 38 27 23 24 25 24 23 22 22 25 27 31 35 34 34 39 44 47 49 50 50 52 55 57 59 59 59 59 59 59 59 59 59 58 58 57 56 54 54 53 53
1 3 9 12 14 13 14 14 10 8 9 8 9 13 14 15 17 14 10 12 13 13 14 14 15 18 17 16 19 23 23 24 26 28 27 23 25 29 32 34 36 39 41 41 39 35 30 31 34 33 32 32 31 31 32 35 40 43 39 38 42 46 48 50 50 49 50 53 56 58 59 59 58 56 56 57 59 60 60 60 59 57 56 54 54 54
1 5 12 16 19 18 18 20 18 15 16 16 17 19 19 19 20 18 16 18 16 15 16 16 18 21 19 17 21 24 24 25 24 22 24 28 30 30 31 32 32 33 34 32 32 33 34 38 41 42 42 41 39 39 42 46 51 50 43 40 41 45 48 49 50 49 50 52 54 56 57 57 55 54 54 56 58 60 61 61 60 58 56 55 55 54
3 8 13 15 19 20 19 21 20 19 18 18 18 20 21 22 23 22 23 23 19 17 17 17 19 21 19 17 21 24 25 24 24 26 32 35 35 34 34 34 30 27 25 24 27 31 35 39 43 46 48 47 48 51 53 55 54 48 43 41 43 46 47 49 50 50 50 53 54 54 54 54 54 53 53 55 56 58 59 60 59 58 57 56 55 54
3 6 11 16 19 20 20 21 21 21 21 19 20 22 23 25 26 27 26 24 23 23 23 23 25 25 19 17 20 25 28 27 27 31 34 34 36 38 37 33 29 25 22 22 25 28 31 35 40 44 47 50 51 53 53 52 49 47 46 47 46 47 49 51 51 48 47 51 53 52 52 53 54 53 53 53 54 55 57 58 59 58 57 56 55 54
5 5 9 13 14 14 17 19 20 21 22 22 23 24 24 25 26 26 24 21 21 24 26 26 27 22 18 20 23 26 30 29 25 24 28 34 36 30 23 21 22 23 22 22 22 23 25 27 30 35 40 43 45 46 47 47 47 48 50 48 46 47 49 51 50 47 45 48 51 51 51 53 54 53 52 51 51 53 54 56 57 57 56 55 54 53
3 4 5 8 9 9 11 16 20 22 23 24 25 25 25 25 23 22 22 20 20 22 24 24 21 16 15 18 19 20 23 22 19 21 27 28 23 20 22 23 25 27 28 28 29 30 30 30 29 29 30 33 37 40 43 45 46 48 49 47 45 46 48 50 50 49 48 49 50 50 51 52 53 52 51 50 50 51 52 54 55 56 56 55 54 53
3 4 5 6 8 8 8 11 15 15 15 15 16 21 25 24 22 21 19 20 23 22 19 17 14 9 8 8 9 12 13 13 14 15 15 18 22 24 23 24 25 27 30 31 34 36 35 35 36 34 32 31 32 34 37 41 44 45 46 46 47 48 49 51 50 48 48 48 48 50 50 51 50 50 50 49 48 49 51 52 54 54 55 54 53 53
7 8 7 6 6 7 7 9 11 10 10 8 7 13 20 23 24 24 22 23 22 15 9 7 4 11 13 12 11 11 11 17 17 11 21 26 27 26 25 26 27 28 31 34 37 39 38 39 40 39 36 34 34 35 35 34 37 40 40 42 46 48 49 50 50 49 48 47 47 48 48 48 48 48 48 48 47 49 50 51 52 53 53 53 52 53
11 11 9 7 7 9 9 10 11 11 9 6 3 5 10 14 16 19 20 15 9 11 12 9 11 14 13 11 12 12 17 28 19 13 27 31 32 32 32 32 33 32 33 35 37 39 39 40 42 42 40 38 36 36 37 36 34 33 33 34 37 40 43 46 47 47 46 46 46 46 45 45 46 46 47 46 47 48 49 50 51 51 52 52 52 52
11 10 7 6 8 8 8 9 11 10 6 3 1 5 7 6 8 11 10 6 12 12 10 8 11 13 12 13 17 18 27 32 13 10 27 37 36 35 35 35 36 35 35 36 36 37 38 38 39 40 40 39 37 36 38 37 36 33 28 25 26 28 31 35 40 42 42 42 43 43 43 44 45 45 45 46 47 48 48 49 49 50 51 51 50 50
11 9 6 6 7 8 10 12 13 14 12 6 2 7 7 5 7 7 3 3 10 10 8 9 12 14 11 13 19 23 29 26 8 5 28 41 38 37 35 34 36 36 36 37 36 36 37 36 36 37 38 38 36 37 38 37 35 35 31 26 22 22 23 26 30 34 37 39 40 41 42 43 44 44 45 46 46 47 47 48 48 49 49 49 49 49
7 8 8 7 6 7 11 11 10 13 10 3 5 7 7 9 10 7 5 2 7 10 9 8 10 13 10 11 17 20 21 16 6 10 28 39 39 38 37 36 36 36 36 37 36 37 36 35 35 35 36 37 37 36 38 38 36 35 33 29 27 24 22 22 24 27 31 34 36 38 40 41 42 43 44 45 45 46 46 47 47 48 47 47 47 47
4 6 7 7 6 7 10 10 9 10 4 6 8 9 11 18 16 7 5 3 6 8 7 7 8 9 8 11 15 14 12 10 6 11 26 36 36 34 34 34 35 36 36 36 35 37 38 37 37 36 36 37 37 37 37 38 37 36 33 30 28 27 25 23 23 25 27 29 32 34 37 39 41 42 44 44 45 45 45 45 45 45 45 45 45 45
5 2 4 6 8 9 11 10 8 5 1 6 8 8 15 22 16 4 5 2 7 5 4 5 6 8 7 10 11 7 5 6 9 17 30 35 32 30 30 31 34 36 37 37 38 40 41 41 40 40 39 39 38 37 37 37 37 35 32 31 30 29 28 25 23 22 23 25 27 30 33 36 38 41 42 43 43 43 43 43 43 44 43 43 43 44
3 2 3 6 7 9 11 10 7 2 3 4 7 11 17 17 6 1 5 7 9 8 6 5 8 9 8 9 8 5 7 11 16 25 31 30 29 31 31 31 34 35 36 39 41 42 44 44 43 43 42 40 39 38 37 38 39 36 33 31 30 30 30 28 26 24 22 23 24 25 28 31 35 38 39 40 40 41 42 42 43 43 42 41 42 43
2 2 3 4 5 6 5 7 8 5 2 9 14 14 14 8 1 4 9 11 14 15 12 12 12 10 11 11 10 11 15 17 18 23 27 28 30 33 35 35 36 36 37 39 41 41 42 44 45 45 44 43 42 39 37 38 39 38 37 34 31 30 31 31 30 28 26 24 24 24 25 26 29 33 37 38 39 40 41 42 42 42 41 40 41 42
2 4 4 4 4 5 4 6 9 6 5 18 19 10 6 3 5 12 12 12 15 16 16 17 14 10 11 13 14 15 17 18 19 21 24 28 31 33 35 35 36 37 39 40 40 39 39 40 43 45 44 44 44 42 39 39 38 39 40 39 35 32 31 31 32 32 31 28 26 25 26 25 26 28 32 36 38 39 40 41 41 41 41 41 41 42
3 3 4 4 3 3 4 5 4 4 11 20 15 4 3 9 16 19 14 11 12 13 15 16 13 10 10 13 15 17 17 19 21 22 23 27 29 31 33 34 34 36 37 38 38 37 37 38 40 42 43 43 42 42 41 40 39 40 41 40 38 36 34 32 31 32 32 32 30 27 26 26 26 27 30 35 38 39 40 40 40 40 41 41 42 43
4 4 5 5 3 3 5 7 9 10 14 18 15 12 15 23 27 25 17 15 15 14 12 11 13 15 16 14 14 16 18 20 24 26 27 28 28 28 29 31 33 34 35 36 37 37 38 39 41 42 44 43 42 41 40 39 39 41 42 40 38 38 37 34 32 30 29 30 30 29 27 26 26 28 31 35 38 40 40 40 39 40 42 42 42 43
6 8 7 4 4 6 8 12 14 12 13 20 23 24 26 28 29 24 17 15 15 13 11 12 16 20 21 19 17 19 21 24 27 29 29 29 29 29 30 31 33 33 34 36 38 39 39 40 41 43 45 46 45 43 41 40 40 41 42 40 37 37 38 37 35 33 30 29 28 28 29 29 27 28 31 36 40 41 41 40 39 40 41 42 43 44
7 10 7 4 5 7 7 9 10 11 17 24 28 30 31 28 23 18 16 16 15 14 15 18 20 22 22 22 23 25 27 29 30 31 30 29 30 32 33 33 34 35 36 38 40 41 41 41 43 44 46 48 48 45 43 43 43 42 42 41 38 37 38 38 38 37 36 32 30 29 30 30 30 29 30 35 39 41 42 42 41 41 42 43 44 45
6 6 5 5 8 8 8 11 16 22 27 30 30 30 28 23 16 15 18 18 17 17 19 21 21 22 23 25 27 28 30 32 31 30 31 32 33 34 35 36 36 37 39 41 42 43 43 44 44 45 45 48 50 49 46 46 46 45 43 41 39 38 38 39 39 39 38 36 34 33 32 32 31 31 32 35 38 41 43 44 45 45 44 44 44 45
6 3 4 6 7 7 9 13 17 20 22 25 28 27 23 19 17 18 19 20 19 19 21 21 22 23 24 27 28 27 28 32 32 31 31 34 36 36 36 37 38 39 41 43 44 45 46 47 46 45 46 49 51 51 49 48 48 46 43 41 40 38 38 39 39 38 40 39 38 37 35 34 33 33 35 37 39 41 43 43 45 46 46 46 46 44
6 6 7 6 5 7 9 13 15 13 9 13 23 27 24 22 22 20 20 21 20 19 18 20 23 26 27 29 28 26 27 30 32 32 32 34 36 38 38 38 39 41 43 45 46 48 49 49 49 48 50 54 55 54 52 51 50 48 45 42 41 39 39 40 39 39 40 40 40 40 38 37 36 36 36 38 40 41 42 43 44 45 46 47 47 46
11 10 10 8 8 11 15 19 21 15 9 16 29 32 26 23 22 22 22 21 20 19 19 21 25 28 30 31 30 28 29 32 33 33 34 35 37 38 39 40 40 42 45 47 47 49 50 50 51 53 56 59 60 59 57 55 54 52 49 46 43 41 39 39 39 40 41 41 41 42 41 40 39 38 38 39 40 41 43 43 44 45 46 46 46 45
Wind_Direction
170 147 157 208 225 224 211 199 216 232 242 250 245 251 253 257 266 257 267 266 205 228 241 233 248 249 250 254 256 263 267 268 269 268 264 261 261 263 264 263 263 263 267 273 272 270 269 269 268 266 264 261 258 254 252 251 249 247 244 241 240 237 235 233 232 230 228 227 227 226 227 227 227 228 229 230 231 231 231 232 233 234 234 235 236 236
168 174 211 221 226 223 213 209 223 240 251 254 245 261 264 253 264 257 264 274 219 201 253 242 254 257 250 253 256 261 266 263 260 262 263 260 258 261 262 263 264 265 269 273 272 271 270 269 268 267 265 262 258 254 250 249 247 245 243 241 240 237 235 233 233 233 232 232 232 232 232 230 229 229 231 231 232 232 232 232 232 233 234 234 235 235
184 209 226 228 229 232 241 204 214 234 232 238 237 259 268 250 270 265 252 269 243 177 259 253 256 260 253 254 255 257 257 257 259 258 260 262 259 258 260 262 264 265 268 271 273 272 271 269 268 266 265 264 262 257 252 249 245 243 241 240 238 236 235 234 234 234 235 235 235 236 236 234 232 233 234 234 235 234 233 233 232 233 233 234 234 234
204 227 233 233 219 212 252 228 206 252 234 216 222 243 261 245 261 267 242 268 264 192 261 268 265 265 261 260 254 251 252 256 261 260 260 262 258 258 259 261 263 265 266 268 271 273 271 270 268 265 265 263 259 254 248 245 242 241 240 239 238 237 235 234 234 234 235 235 235 235 236 236 236 236 236 235 235 235 234 233 233 233 233 233 234 233
229 236 234 215 180 202 236 242 225 261 252 215 209 223 247 244 243 253 268 306 301 273 283 290 283 272 239 246 250 247 251 254 258 259 261 260 256 258 260 261 261 262 264 266 268 270 270 269 269 267 265 262 256 251 247 244 243 242 241 240 238 237 236 234 234 233 233 232 232 231 231 231 232 233 233 233 233 232 232 233 233 234 233 233 233 233
245 248 226 171 190 207 216 236 220 228 252 244 214 220 236 243 246 255 280 323 321 294 308 354 297 285 199 218 240 244 248 251 252 253 256 257 256 254 256 260 261 262 263 264 266 268 268 268 268 266 264 259 254 250 248 245 244 243 242 240 238 237 236 234 233 232 232 232 232 231 230 229 229 229 230 231 231 231 231 232 232 232 233 233 233 233
240 234 213 185 199 199 197 240 223 205 242 272 228 217 230 238 245 251 266 298 256 259 282 99 283 284 256 214 226 232 240 248 250 251 251 254 255 249 249 257 261 263 264 265 266 268 268 267 266 264 262 259 255 252 247 243 242 241 240 239 238 236 235 234 233 232 233 233 234 235 235 236 234 233 234 234 234 234 234 234 234 233 233 233 233 233
196 209 209 198 197 180 189 239 224 186 213 267 233 194 207 222 226 218 207 217 232 276 293 141 145 273 281 245 201 209 221 238 248 251 253 252 253 251 251 255 258 262 265 266 268 270 269 267 265 264 263 260 257 251 245 241 240 240 239 238 237 236 235 234 233 233 234 234 235 236 237 238 239 240 241 241 239 238 237 236 236 235 234 234 233 233
165 192 208 191 179 189 208 227 202 157 193 252 203 155 171 193 198 168 164 200 281 346 292 200 139 265 281 251 171 198 209 226 239 241 247 248 251 254 255 257 259 261 264 266 268 270 269 267 266 266 265 260 254 248 244 243 242 240 238 237 236 235 235 234 233 234 234 235 236 237 237 238 240 241 242 242 242 241 239 238 237 236 235 235 234 233
177 180 190 168 170 214 219 226 173 162 205 230 122 97 71 69 71 90 122 114 34 313 257 200 153 241 282 285 124 166 197 220 234 236 246 252 254 257 258 261 265 266 266 266 266 267 267 267 266 265 262 255 247 243 243 243 241 239 237 236 235 234 234 234 234 234 234 235 236 236 237 239 239 239 239 240 240 240 240 239 238 237 236 235 235 234
241 105 117 177 195 204 182 161 158 173 190 129 102 62 31 19 25 47 25 71 41 281 243 187 175 187 273 293 134 171 199 212 225 233 253 262 260 261 261 263 269 271 269 266 265 266 266 264 261 257 252 246 241 239 239 240 239 238 237 236 235 234 233 233 233 234 234 235 236 236 237 238 239 239 239 239 239 239 239 238 238 238 237 237 236 235
252 183 203 209 191 154 110 100 13 39 115 116 105 78 33 332 5 28 350 54 169 264 239 186 179 179 235 260 185 228 244 205 207 222 238 248 251 257 261 262 267 270 268 268 267 266 264 261 256 249 240 233 233 233 235 237 237 237 237 235 234 233 231 231 232 233 234 235 236 237 238 238 239 238 238 239 240 241 240 239 239 238 238 237 236 235
269 217 212 187 180 171 134 107 349 358 60 111 113 118 97 299 339 356 306 65 216 257 255 178 173 202 242 249 236 262 270 236 208 214 226 235 244 253 262 264 263 264 268 272 271 268 263 256 251 245 236 230 229 229 231 234 235 236 236 234 232 229 228 229 230 231 232 234 235 236 238 237 238 238 239 240 241 243 243 242 240 239 238 237 236 235
296 260 187 136 235 191 162 166 224 273 175 158 153 153 172 213 224 261 264 267 257 265 290 156 166 255 280 273 229 238 256 259 231 222 231 236 242 251 261 264 264 266 272 275 270 266 261 250 245 244 239 237 233 229 230 232 234 235 234 233 230 227 227 227 228 229 231 232 234 236 238 237 237 238 238 239 241 243 244 243 243 243 242 240 239 238
259 282 194 161 216 178 176 202 198 148 163 188 162 146 181 187 178 209 228 248 260 278 308 206 176 237 287 297 233 229 265 288 267 243 248 252 253 258 265 269 269 269 272 274 271 267 258 244 242 243 241 241 237 232 232 232 233 233 232 230 229 227 226 225 226 228 229 230 233 235 236 236 236 237 238 239 240 243 244 245 244 244 244 244 243 242
227 270 236 171 149 160 181 212 178 121 156 222 125 118 222 200 174 219 246 237 241 302 291 234 212 236 249 268 261 250 264 277 273 264 270 270 262 261 263 264 265 263 266 276 282 277 257 242 240 242 241 242 238 234 235 234 232 232 230 229 228 228 227 227 226 227 228 230 232 234 234 235 235 235 237 238 239 240 243 245 246 246 246 246 245 243
233 272 257 110 179 180 188 207 172 164 199 185 131 182 216 163 157 225 274 301 90 262 261 249 256 273 301 284 277 254 249 260 272 265 257 258 260 263 264 263 265 264 266 276 287 284 260 244 241 240 240 241 238 236 237 236 235 234 233 233 232 231 230 229 229 228 229 230 231 233 233 234 234 234 234 235 237 238 240 242 245 246 246 246 245 243
236 272 259 182 220 244 279 5 281 225 154 130 178 207 166 83 127 172 246 319 251 247 254 259 264 273 289 279 307 23 319 286 276 260 255 267 271 274 271 270 271 270 270 276 284 286 268 248 241 238 241 243 239 240 240 239 240 238 239 242 239 235 233 233 232 230 230 231 231 232 232 233 234 234 234 235 237 238 239 240 241 244 246 245 244 242
213 254 267 199 206 292 22 10 298 314 120 141 228 230 119 165 231 165 176 211 229 242 244 242 257 267 250 248 275 300 283 281 282 288 303 289 282 280 279 281 282 278 276 279 284 283 269 252 242 236 240 244 239 240 243 242 242 241 243 249 248 242 239 237 235 233 232 232 232 233 233 233 235 236 236 236 237 238 239 240 240 241 243 245 243 241
177 234 262 10 356 321 31 244 215 253 301 8 322 308 37 195 200 180 185 180 218 242 248 236 244 257 245 230 231 240 241 241 258 294 302 281 292 299 297 300 298 293 292 294 295 289 275 257 245 238 240 246 243 242 244 241 244 250 251 252 253 249 243 239 238 237 236 235 234 234 234 235 236 237 238 237 237 237 238 240 241 241 241 241 242 241
14 242 251 345 343 247 192 209 191 195 221 204 238 251 256 238 205 239 239 175 215 241 248 245 239 245 252 221 199 219 226 209 212 258 288 291 299 297 295 294 293 294 295 294 293 290 281 265 248 242 244 247 248 247 247 248 255 262 258 255 257 256 249 243 241 240 240 239 238 236 236 235 236 237 238 238 237 237 237 239 241 242 241 240 240 239
333 261 263 274 254 233 235 229 197 201 206 188 207 223 223 227 242 268 251 221 220 240 245 254 253 248 264 273 242 221 214 218 223 250 278 283 284 283 283 281 282 285 285 284 282 281 280 270 253 247 249 250 254 252 251 259 266 265 262 262 264 263 258 252 247 245 243 242 240 239 239 238 237 237 238 239 238 238 237 238 240 241 241 241 240 239
150 165 283 264 252 254 274 274 228 215 211 194 211 214 214 223 217 239 249 240 245 266 263 267 265 244 214 283 284 277 265 266 268 264 267 274 273 272 273 272 273 275 277 281 281 278 280 274 256 247 248 255 262 259 256 264 269 268 268 269 269 269 268 263 256 250 246 244 243 242 242 240 239 239 239 239 239 239 238 239 240 240 241 241 241 239
143 129 243 259 284 283 285 294 277 225 191 222 240 206 203 222 221 231 244 245 263 271 273 270 261 242 103 294 286 286 285 283 276 262 255 263 267 267 268 269 271 272 275 279 279 280 282 274 254 246 254 266 268 265 263 265 271 277 278 277 275 275 275 272 264 256 249 246 245 245 243 242 241 241 241 241 241 240 240 240 240 240 241 241 241 239
187 171 150 225 291 281 280 297 280 236 202 228 237 220 223 231 240 254 257 220 242 238 238 253 256 247 256 271 272 278 280 280 277 267 255 250 258 264 268 271 272 273 276 277 277 279 280 269 256 263 277 277 270 267 267 270 282 289 285 281 280 278 277 275 269 260 254 250 247 245 245 244 243 242 242 243 243 242 242 241 240 241 241 240 240 239
203 202 172 213 249 253 257 254 229 212 215 214 207 219 226 224 230 247 254 248 248 232 227 242 255 252 248 254 262 266 269 273 276 274 266 254 257 265 268 270 273 275 276 275 273 273 272 272 280 287 288 284 279 274 272 279 292 296 288 281 280 277 275 274 270 264 258 254 250 247 246 246 245 245 245 246 246 244 243 242 241 241 241 241 241 239
216 223 207 226 235 238 247 247 236 227 231 238 236 232 235 233 233 240 247 248 254 253 245 241 247 254 249 245 253 258 261 267 271 275 276 272 269 271 271 272 274 275 274 272 269 269 272 281 288 290 289 288 285 283 284 290 299 300 288 277 276 275 274 272 271 267 261 256 253 251 249 247 247 249 249 248 248 246 244 243 243 242 241 241 241 240
275 246 227 235 239 239 247 251 251 249 244 245 245 243 245 246 243 244 248 249 252 258 256 244 241 249 248 242 250 256 259 262 265 271 278 280 280 280 279 277 273 270 269 269 271 276 282 288 291 293 293 292 290 291 293 295 297 293 281 270 269 272 273 271 270 269 264 257 255 254 252 251 250 251 250 249 248 246 244 243 242 242 241 241 240 240
215 242 235 239 244 243 246 251 252 252 251 247 246 247 248 248 247 247 247 247 246 249 256 255 248 248 248 244 248 253 256 258 263 268 274 280 283 283 280 279 278 278 279 278 277 279 282 284 285 287 288 289 290 291 290 290 288 282 276 276 271 267 269 270 268 268 265 258 255 256 256 254 251 250 249 247 246 245 245 243 242 241 241 240 240 240
227 237 234 243 250 246 243 247 248 249 253 250 246 245 245 246 248 248 248 249 248 250 256 258 256 255 254 251 251 252 256 260 264 268 272 276 277 278 282 289 299 307 308 302 296 292 291 288 287 288 288 288 289 289 287 286 283 277 280 284 276 267 268 269 267 267 265 261 260 259 257 254 250 248 247 246 246 245 245 244 242 240 240 239 240 239
243 241 242 249 255 247 242 247 247 246 248 250 248 246 245 246 247 248 252 252 251 254 255 254 257 258 255 255 255 255 259 264 267 268 270 273 279 290 311 332 347 353 352 347 340 334 330 322 313 306 301 297 295 294 291 289 286 283 285 286 278 272 272 270 268 265 263 264 263 259 255 251 248 246 247 247 246 245 244 243 242 240 239 238 238 238
267 276 272 268 267 256 245 246 247 248 247 246 247 246 244 244 243 244 245 244 247 253 255 255 257 256 257 259 260 264 267 269 273 278 281 290 315 359 20 19 16 12 8 6 4 1 358 356 350 340 329 316 306 300 295 292 293 291 289 286 281 277 274 271 270 266 263 265 263 257 252 249 247 246 246 246 246 245 243 242 241 239 237 237 237 237
253 274 279 274 273 271 261 257 260 258 249 244 243 242 243 244 246 247 246 246 247 248 253 257 258 279 317 332 331 318 308 301 297 304 327 352 11 25 24 16 10 5 1 358 355 354 352 351 350 349 346 340 330 319 304 294 291 290 290 289 286 282 278 275 273 271 269 268 263 257 253 249 246 246 246 245 245 244 242 241 239 238 237 236 236 236
258 268 273 273 275 279 286 293 290 271 257 255 231 229 238 243 246 249 250 251 252 260 286 301 352 16 17 23 10 348 333 320 318 11 44 31 17 9 5 4 360 353 351 347 344 345 344 342 342 342 342 342 341 338 330 312 297 288 285 288 288 284 282 280 276 274 272 268 262 258 254 250 248 248 247 245 244 242 240 240 239 237 236 235 235 234
262 265 266 265 269 275 281 285 276 261 260 269 227 223 247 251 257 263 264 272 310 354 358 10 37 29 17 8 357 349 334 322 322 51 47 23 12 5 354 350 349 346 344 341 339 341 341 339 340 340 340 340 339 340 340 336 326 306 288 284 286 284 283 281 278 276 273 268 263 259 256 253 251 249 247 245 243 241 240 239 238 236 235 234 234 235
247 256 262 261 263 271 271 260 259 267 279 271 323 12 354 340 338 317 295 344 22 12 354 9 28 20 10 360 352 349 341 331 322 66 26 6 2 358 348 343 343 341 339 339 337 338 339 340 341 340 340 341 341 341 340 340 341 333 316 301 293 289 287 284 281 278 275 270 266 263 259 256 252 249 247 244 242 241 239 238 236 235 234 233 233 233
233 243 254 252 244 252 260 256 262 277 278 266 314 4 5 351 338 320 280 51 34 8 352 10 10 2 3 357 348 347 347 342 323 4 357 352 350 348 344 341 339 337 337 337 337 338 340 342 343 343 343 342 342 344 342 339 340 340 337 332 322 312 305 298 292 287 281 276 272 267 263 258 253 250 247 245 243 242 240 239 236 234 234 233 232 232
229 229 241 253 242 251 268 269 275 276 271 304 332 321 333 324 303 282 235 157 46 18 0 11 5 352 350 348 346 349 350 347 333 329 339 341 341 341 341 339 338 338 338 339 340 342 343 345 345 345 346 344 343 343 342 339 338 338 338 338 336 331 323 314 307 301 293 286 278 270 263 258 254 251 248 247 246 244 241 238 236 235 235 234 234 234
296 240 236 255 255 260 267 268 276 271 266 27 340 311 331 324 307 282 219 177 63 21 349 11 7 341 337 335 338 350 352 342 326 319 327 331 334 336 338 337 338 338 338 340 342 340 340 341 341 340 341 342 342 343 341 337 335 335 335 334 333 334 333 328 320 311 303 294 284 273 265 259 255 252 250 248 246 243 240 238 236 236 236 235 235 235
345 298 254 261 260 266 266 259 267 268 73 26 336 323 334 323 311 279 229 263 39 12 324 5 342 307 313 319 323 346 354 317 300 308 319 326 328 332 335 335 335 336 335 335 335 334 334 334 335 336 336 336 337 338 339 337 332 331 334 331 327 329 332 330 323 317 311 303 293 281 272 264 258 253 250 248 245 242 240 239 238 237 236 235 234 234
334 306 279 269 266 276 273 270 281 257 122 38 354 344 341 333 326 286 283 316 342 316 291 316 305 292 300 300 296 299 290 289 295 305 316 324 325 327 330 330 330 330 329 328 329 330 330 330 331 331 330 330 330 331 334 335 332 332 334 331 328 331 331 326 321 317 312 306 301 293 282 273 265 258 253 249 247 244 242 241 239 239 237 235 234 233
288 263 269 262 272 287 273 278 288 259 116 23 3 353 356 2 349 298 300 297 295 291 295 301 293 292 299 289 283 290 292 298 305 309 316 321 321 323 325 326 327 326 324 324 325 327 328 327 326 327 326 327 328 327 328 329 328 329 331 328 328 330 330 328 325 321 315 308 305 300 292 283 273 264 257 252 249 246 244 241 240 239 237 235 234 232
274 279 282 250 259 282 262 264 270 250 337 354 349 351 25 46 274 291 292 274 269 274 287 295 293 297 302 293 293 298 299 302 308 309 313 315 317 321 322 322 323 322 321 321 322 324 326 325 323 324 323 324 325 325 325 324 321 321 323 322 322 322 322 324 325 323 320 314 308 303 297 291 283 274 264 256 252 247 244 241 240 238 235 233 232 230
259 252 263 255 270 287 249 253 268 275 319 330 329 310 301 304 301 302 295 274 272 280 288 294 295 300 303 297 296 299 299 301 306 309 310 311 315 318 317 317 319 318 318 319 319 322 324 324 323 322 320 321 323 324 324 323 318 315 314 316 318 317 315 314 312 311 313 313 311 306 300 294 289 282 271 261 253 246 243 242 240 238 235 233 231 230
229 220 250 264 269 257 238 259 283 290 296 301 294 283 294 305 308 304 288 271 280 292 297 298 300 306 309 303 296 296 298 302 307 311 311 312 313 314 314 315 317 316 317 317 317 320 322 322 321 320 318 318 320 321 322 321 317 312 309 310 313 312 310 308 303 299 300 303 304 304 300 295 290 282 272 262 253 247 245 244 241 239 236 233 232 231
259 266 277 277 254 260 261 262 271 281 284 285 287 290 296 301 302 295 280 267 272 277 280 290 300 305 308 307 305 304 305 308 310 311 312 313 313 313 313 314 314 315 315 314 315 318 319 319 318 317 316 316 316 317 317 316 313 309 306 306 308 307 305 304 301 298 295 293 294 295 294 292 288 281 271 261 253 249 247 246 245 242 239 236 234 231
256 246 247 255 262 270 269 261 266 276 279 281 286 291 294 295 289 281 277 275 271 269 277 288 297 301 302 306 309 309 310 311 311 311 311 312 311 311 312 312 312 313 313 313 315 317 317 317 316 315 314 313 313 313 312 310 307 305 303 304 305 303 301 299 298 298 297 294 291 288 286 285 283 278 270 261 253 249 246 244 243 241 239 238 233 229
248 223 207 234 249 248 255 270 276 277 278 281 285 287 289 286 275 270 278 277 270 271 279 286 292 295 299 304 307 308 310 310 309 309 309 309 309 309 310 310 310 311 311 313 315 315 315 314 313 313 312 311 310 310 308 305 303 302 302 302 302 301 298 295 294 296 297 295 291 286 282 279 277 273 267 260 254 249 246 244 242 240 240 239 235 231
242 249 230 239 253 260 267 274 277 277 279 281 282 284 285 283 278 278 279 277 274 280 286 288 292 295 298 302 305 305 304 305 305 306 305 305 306 307 307 307 308 308 309 311 312 312 313 312 311 310 308 307 307 306 304 302 300 299 299 299 299 298 296 293 293 294 295 292 289 284 279 274 272 269 264 259 253 250 247 246 244 242 241 241 240 239
228 253 252 247 256 261 258 259 264 271 277 276 282 287 289 286 284 284 284 284 286 290 294 294 297 299 301 303 306 303 300 301 304 304 303 303 304 305 305 305 304 305 306 308 309 309 310 309 309 308 306 306 306 304 301 299 297 295 293 292 292 291 290 290 290 291 291 290 286 282 277 273 270 266 262 258 253 249 246 244 244 243 242 242 242 241
226 237 244 246 250 251 254 259 261 263 264 273 281 286 286 285 287 287 285 287 290 294 299 300 301 304 305 306 306 303 300 301 305 305 304 303 304 304 304 303 301 301 303 304 305 305 306 306 306 305 304 304 303 301 300 298 296 294 291 289 287 286 286 287 288 287 286 286 284 281 277 273 269 264 260 257 254 249 246 244 243 242 242 242 242 241